Qianfan Jigui 06-18

operational
NORAD ID: 62802 Int'l Des: 2025-016 Owner: YUANX Country: CN Constellation: qianfan
LEOCIRCULARPOLAR

Qianfan Jigui 06-18について

説明を読み込み中...

リアルタイム位置

3D地球を読み込み中...

次回通過

高度履歴

Altitude vs Time

uPlot chart will show altitude changes over time

軌道要素

1 62802U 25016T 25350.35555228 .00000133 00000-0 18810-3 0 9990
2 62802 88.9762 102.7270 0018158 349.9890 10.0896 13.50985389 47718
Epoch: Dec 16, 2025 • Age: 16 hours

現在のステータス

高度 1060.9 km
速度 7.33 km/s
衛星直下点 -13.86°S, 9.56°E
打ち上げ日 Jan 23, 2025
運用期間 0.8 years
タイプ internet

技術仕様

分類 Payload
質量 267.00 kg
乾燥質量 267.00 kg
総質量 267.00 kg
長さ 0.30 m
直径 3.00 m
スパン 10.00 m
形状 Box+pan
製造者 SECM
バスタイプ Qianfan
フェーズステータス In Orbit
所有者/国 YUANX/CN

大規模コンステレーション

Loading constellations...